• In Portugal
  • List of Countries
  • For 7 days
  • Water Temperature
  • Satellite Maps
  • Weather Map
  • Weather Widgets
  • user-avatar
    Login

    Hourly Weather Sevan

    Today, 21 November, Tuesday

    Time Temperature Precipitation Wind Pressure Humidity
    00:00 +5°C° 0 mm 2 mps 637 mmHg 68%
    01:00 +5°C° 0 mm 2 mps 637 mmHg 69%
    02:00 +5°C° 0 mm 2 mps 637 mmHg 70%
    03:00 +5°C° 0 mm 2 mps 636 mmHg 73%
    04:00 +5°C° 0 mm 2 mps 636 mmHg 73%
    05:00 +5°C° 0 mm 2 mps 636 mmHg 72%
    06:00 +5°C° 0 mm 2 mps 636 mmHg 72%
    07:00 +5°C° 0.1 mm 3 mps 636 mmHg 69%
    08:00 +7°C° 0.1 mm 3 mps 636 mmHg 66%
    09:00 +8°C° 0.1 mm 3 mps 636 mmHg 62%
    10:00 +9°C° 0.2 mm 3 mps 636 mmHg 60%
    11:00 +9°C° 0.2 mm 3 mps 636 mmHg 58%
    12:00 +10°C° 0.2 mm 4 mps 636 mmHg 56%
    13:00 +10°C° 0.1 mm 4 mps 635 mmHg 58%
    14:00 +10°C° 0.1 mm 4 mps 635 mmHg 59%
    15:00 +10°C° 0.1 mm 4 mps 635 mmHg 61%
    16:00 +8°C° 0 mm 4 mps 634 mmHg 66%
    17:00 +8°C° 0 mm 3 mps 634 mmHg 71%
    18:00 +7°C° 0 mm 3 mps 633 mmHg 77%
    19:00 +7°C° 0 mm 3 mps 633 mmHg 78%
    20:00 +5°C° 0 mm 3 mps 633 mmHg 78%
    21:00 +5°C° 0 mm 3 mps 632 mmHg 79%
    22:00 +5°C° 0.1 mm 3 mps 632 mmHg 80%
    23:00 +5°C° 0.1 mm 3 mps 632 mmHg 81%

    Tomorrow, 22 November, Wednesday

    Time Temperature Precipitation Wind Pressure Humidity
    00:00 +5°C° 0.1 mm 3 mps 632 mmHg 82%
    01:00 +6°C° 0.3 mm 2 mps 632 mmHg 83%
    02:00 +6°C° 0.3 mm 2 mps 632 mmHg 84%
    03:00 +5°C° 0.3 mm 2 mps 632 mmHg 84%
    04:00 +5°C° 0.9 mm 2 mps 632 mmHg 85%
    05:00 +5°C° 0.9 mm 2 mps 632 mmHg 86%
    06:00 +4°C° 0.9 mm 2 mps 632 mmHg 87%
    07:00 +4°C° 1.1 mm 2 mps 632 mmHg 86%
    08:00 +4°C° 1.1 mm 2 mps 632 mmHg 86%
    09:00 +4°C° 1.1 mm 2 mps 632 mmHg 85%
    10:00 +4°C° 0.9 mm 2 mps 632 mmHg 84%
    11:00 +4°C° 0.9 mm 2 mps 632 mmHg 83%
    12:00 +4°C° 0.9 mm 2 mps 632 mmHg 82%
    13:00 +4°C° 0.6 mm 2 mps 632 mmHg 81%
    14:00 +3°C° 0.6 mm 2 mps 632 mmHg 80%
    15:00 +3°C° 0.6 mm 2 mps 632 mmHg 79%
    16:00 +3°C° 0.3 mm 2 mps 632 mmHg 79%
    17:00 +2°C° 0.3 mm 2 mps 633 mmHg 80%
    18:00 +2°C° 0.3 mm 1 mps 633 mmHg 80%
    19:00 +1°C° 0.3 mm 2 mps 634 mmHg 81%
    20:00 -1°C° 0.3 mm 2 mps 634 mmHg 81%
    21:00 -1°C° 0.3 mm 2 mps 634 mmHg 82%
    22:00 -1°C° 0.2 mm 2 mps 634 mmHg 82%
    23:00 -2°C° 0.2 mm 2 mps 634 mmHg 82%

    Day after tomorrow, 23 November, Thursday

    Time Temperature Precipitation Wind Pressure Humidity
    00:00 -2°C° 0.2 mm 2 mps 635 mmHg 81%
    01:00 -3°C° 0.1 mm 2 mps 635 mmHg 80%
    02:00 -3°C° 0.1 mm 2 mps 635 mmHg 79%
    03:00 -1°C° 0.1 mm 1 mps 635 mmHg 79%
    04:00 -2°C° 0 mm 1 mps 635 mmHg 78%
    05:00 -3°C° 0 mm 1 mps 635 mmHg 77%
    06:00 -4°C° 0 mm 1 mps 635 mmHg 76%
    07:00 -5°C° 0 mm 2 mps 635 mmHg 74%
    08:00 -4°C° 0 mm 2 mps 636 mmHg 72%
    09:00 -4°C° 0 mm 2 mps 636 mmHg 70%
    10:00 -4°C° 0 mm 3 mps 636 mmHg 68%
    11:00 -2°C° 0 mm 3 mps 636 mmHg 66%
    12:00 -3°C° 0 mm 4 mps 636 mmHg 63%
    13:00 -3°C° 0 mm 4 mps 636 mmHg 63%
    14:00 -3°C° 0 mm 4 mps 636 mmHg 63%
    15:00 -3°C° 0 mm 4 mps 635 mmHg 63%
    16:00 -2°C° 0 mm 3 mps 635 mmHg 66%
    17:00 -4°C° 0 mm 3 mps 636 mmHg 68%
    18:00 -4°C° 0 mm 2 mps 636 mmHg 70%
    19:00 -4°C° 0.1 mm 2 mps 636 mmHg 72%
    20:00 -4°C° 0.1 mm 2 mps 636 mmHg 73%
    21:00 -4°C° 0.1 mm 2 mps 636 mmHg 74%
    22:00 -4°C° 0.1 mm 2 mps 636 mmHg 75%
    23:00 -4°C° 0.1 mm 2 mps 637 mmHg 76%

    24 November, Friday

    Time Temperature Precipitation Wind Pressure Humidity
    00:00 -2°C° 0.1 mm 1 mps 637 mmHg 77%
    01:00 -3°C° 0.2 mm 1 mps 637 mmHg 78%
    02:00 -3°C° 0.2 mm 1 mps 637 mmHg 79%
    03:00 -3°C° 0.2 mm 1 mps 637 mmHg 79%
    04:00 -3°C° 0.1 mm 1 mps 637 mmHg 79%
    05:00 -3°C° 0.1 mm 1 mps 637 mmHg 79%
    06:00 -4°C° 0.1 mm 1 mps 637 mmHg 79%
    07:00 -3°C° 0 mm 1 mps 638 mmHg 77%
    08:00 -3°C° 0 mm 1 mps 638 mmHg 75%
    09:00 -2°C° 0 mm 1 mps 639 mmHg 74%
    10:00 -1°C° 0 mm 1 mps 639 mmHg 70%
    11:00 -1°C° 0 mm 1 mps 639 mmHg 66%
    12:00 -2°C° 0 mm 2 mps 639 mmHg 63%
    13:00 -2°C° 0 mm 2 mps 639 mmHg 63%
    14:00 0°C° 0 mm 1 mps 639 mmHg 64%
    15:00 -1°C° 0 mm 1 mps 639 mmHg 65%
    16:00 -2°C° 0 mm 1 mps 639 mmHg 67%
    17:00 -3°C° 0 mm 1 mps 639 mmHg 68%
    18:00 -4°C° 0 mm 1 mps 639 mmHg 70%
    19:00 -4°C° 0.1 mm 1 mps 639 mmHg 71%
    20:00 -4°C° 0.1 mm 1 mps 640 mmHg 71%
    21:00 -4°C° 0.1 mm 1 mps 640 mmHg 72%
    22:00 -4°C° 0.1 mm 1 mps 640 mmHg 72%
    23:00 -4°C° 0.1 mm 1 mps 640 mmHg 73%

    25 November, Saturday

    Time Temperature Precipitation Wind Pressure Humidity
    00:00 -6°C° 0.1 mm 1 mps 640 mmHg 74%
    01:00 -6°C° 0 mm 1 mps 641 mmHg 74%
    02:00 -6°C° 0 mm 1 mps 641 mmHg 75%
    03:00 -7°C° 0 mm 1 mps 641 mmHg 75%
    04:00 -7°C° 0 mm 1 mps 641 mmHg 76%
    05:00 -7°C° 0.1 mm 1 mps 641 mmHg 76%
    06:00 -7°C° 0.1 mm 1 mps 642 mmHg 77%
    07:00 -7°C° 0.1 mm 1 mps 642 mmHg 76%
    08:00 -6°C° 0.1 mm 1 mps 643 mmHg 74%
    09:00 -4°C° 0.1 mm 1 mps 643 mmHg 73%
    10:00 -6°C° 0.1 mm 2 mps 644 mmHg 71%
    11:00 -5°C° 0.1 mm 2 mps 644 mmHg 69%
    12:00 -5°C° 0.1 mm 2 mps 644 mmHg 67%
    13:00 -4°C° 0.1 mm 2 mps 644 mmHg 67%
    14:00 -4°C° 0.1 mm 2 mps 644 mmHg 66%
    15:00 -2°C° 0.1 mm 1 mps 644 mmHg 66%
    16:00 -4°C° 0 mm 1 mps 645 mmHg 67%
    17:00 -6°C° 0 mm 1 mps 645 mmHg 68%
    18:00 -8°C° 0 mm 1 mps 645 mmHg 70%
    19:00 -8°C° 0 mm 1 mps 645 mmHg 69%
    20:00 -8°C° 0 mm 1 mps 646 mmHg 69%
    21:00 -9°C° 0 mm 1 mps 646 mmHg 69%
    22:00 -9°C° 0 mm 1 mps 646 mmHg 68%
    23:00 -9°C° 0 mm 1 mps 646 mmHg 68%

    26 November, Sunday

    Time Temperature Precipitation Wind Pressure Humidity
    00:00 -10°C° 0 mm 2 mps 646 mmHg 67%
    01:00 -10°C° 0 mm 2 mps 646 mmHg 66%
    02:00 -10°C° 0 mm 2 mps 646 mmHg 65%
    03:00 -9°C° 0 mm 1 mps 646 mmHg 64%
    04:00 -10°C° 0 mm 2 mps 646 mmHg 63%
    05:00 -10°C° 0 mm 2 mps 646 mmHg 62%
    06:00 -10°C° 0 mm 2 mps 645 mmHg 61%
    07:00 -9°C° 0 mm 2 mps 646 mmHg 61%
    08:00 -7°C° 0 mm 2 mps 646 mmHg 60%
    09:00 -6°C° 0 mm 2 mps 647 mmHg 59%
    10:00 -5°C° 0 mm 2 mps 646 mmHg 58%
    11:00 -3°C° 0 mm 2 mps 646 mmHg 56%
    12:00 -2°C° 0 mm 2 mps 646 mmHg 54%
    13:00 -2°C° 0 mm 2 mps 646 mmHg 55%
    14:00 -2°C° 0 mm 2 mps 645 mmHg 55%
    15:00 -2°C° 0 mm 2 mps 645 mmHg 56%
    16:00 -4°C° 0 mm 2 mps 645 mmHg 55%
    17:00 -5°C° 0 mm 2 mps 645 mmHg 54%
    18:00 -7°C° 0 mm 2 mps 644 mmHg 53%
    19:00 -7°C° 0 mm 2 mps 644 mmHg 52%
    20:00 -7°C° 0 mm 2 mps 644 mmHg 51%
    21:00 -6°C° 0 mm 1 mps 645 mmHg 50%
    22:00 -6°C° 0 mm 1 mps 644 mmHg 50%
    23:00 -7°C° 0 mm 1 mps 644 mmHg 49%
    Show more